Tracking 29892 objects as of 21-Nov-2024
HD Live streaming from Space Station
objects crossing your sky now

STARLINK-5161

Track STARLINK-5161 now!
10-day predictions
STARLINK-5161 is classified as:


NORAD ID: 54163
Int'l Code: 2022-141G
Perigee: 546.0 km
Apogee: 547.7 km
Inclination: 53.2 °
Period: 95.4 minutes
Semi major axis: 6917 km
RCS: Unknown
Launch date: October 28, 2022
Source: United States (US)
Launch site: AIR FORCE WESTERN TEST RANGE (AFWTR)
Your satellite tracking list
Your tracking list is empty




NASA's NSSDC Master Catalog

Two Line Element Set (TLE):
1 54163U 22141G   24325.00293380  .00000363  00000-0  40884-4 0  9990
2 54163  53.2175 335.2393 0001228  98.8588 261.2543 15.08844554114194
Source of the keplerian elements: AFSPC